Погода в Кочубее

Россия / Республика Дагестан     44°23′31″N   46°32′45″E
темп.,
°C
ветер,
м/с
пор.,
м/с
влажн.,
%
обл.,
%
осадки,
мм/ч
давл.,
гПа
погр.,
м
20 мая, пт
пт2000:00+15сз111366100 0.0 1015990
03:00+12сз111580100 1.7 1016886
06:00+11сз81676100 0.4 1016927
09:00+16з111552100 0.6 10161909
12:00+15з12185899 0.0 10151789
15:00+18зсз111545100 0.0 10142260
18:00+17зсз1114495 0.0 10151759
21:00+14зсз914665 0.0 1016658
21 мая, сб
сб2100:00+13з814735 0.0 1017590
03:00+12з915715 0.0 1016532
06:00+13з9166432 0.0 1017726
09:00+18зсз10144873 0.1 10171581
12:00+17зсз101655100 0.1 10171717
15:00+17зсз71259100 0.1 10161229
18:00+18з3552100 0.0 1015681
21:00+16ю5958100 0.0 1013190
22 мая, вс
вс2200:00+16юз3661100 0.0 1011165
03:00+15зюз456782 0.0 101070
06:00+16зюз48635 0.0 1009202
09:00+23з510355 0.0 10081389
12:00+26з682843 0.0 10061996
15:00+27сз45260 0.0 10042066
18:00+23вюв45440 0.0 1004318
21:00+20ю23504 0.0 100444
23 мая, пн
пн2300:00+18вюв22551 0.1 100220
03:00+17ссв58670 0.1 1002163
06:00+17с5967100 0.0 1004385
09:00+21ссз574356 0.0 10041201
12:00+23сз5538100 0.0 10041938
15:00+23ссз443836 0.1 10031784
18:00+21св334894 0.0 1003556
21:00+18сз6861100 0.0 1003446
24 мая, вт
вт2400:00+17сз81166100 0.0 1004573
03:00+14сз101379100 0.8 1005474
06:00+14зсз4785100 3.4 1007372
09:00+16з7968100 4.1 1007976
12:00+18з7952100 0.0 10081700
15:00+19зсз7854100 0.1 10091685
18:00+17ссз6758100 0.1 1011938
21:00+14сз356497 0.1 1013107